This is the latest recevied weather packets stored in our database for station/object DB2YI-13. If no packets are shown the sender has not sent any weather packets the latest 10 day(s).
| Time | Temp. | Humidity | Pressure | Rain* | Wind** | Luminosity | Snow |
|---|---|---|---|---|---|---|---|
| 1777630201 | 18.89° C | 36% | - | 0 mm | - | - | - |
| 1777629601 | 18.33° C | 35% | - | 0 mm | - | - | - |
| 1777629001 | 18.89° C | 35% | - | 0 mm | - | - | - |
| 1777628401 | 17.78° C | 36% | - | 0 mm | - | - | - |
| 1777627802 | 17.78° C | 35% | - | 0 mm | - | - | - |
| 1777627201 | 17.22° C | 36% | - | 0 mm | - | - | - |
| 1777626601 | 17.22° C | 36% | - | 0 mm | - | - | - |
| 1777626001 | 16.67° C | 36% | - | 0 mm | - | - | - |
| 1777625404 | 16.67° C | 38% | - | 0 mm | - | - | - |
| 1777624801 | 16.67° C | 38% | - | 0 mm | - | - | - |
| 1777624202 | 16.67° C | 39% | - | 0 mm | - | - | - |
| 1777623602 | 16.67° C | 39% | - | 0 mm | - | - | - |
| 1777623001 | 16.67° C | 39% | - | 0 mm | - | - | - |
| 1777622403 | 16.11° C | 39% | - | 0 mm | - | - | - |
| 1777621801 | 16.11° C | 40% | - | 0 mm | - | - | - |
| 1777621203 | 15.56° C | 41% | - | 0 mm | - | - | - |
| 1777620601 | 15° C | 51% | - | 0 mm | - | - | - |
| 1777620003 | 13.89° C | 57% | - | 0 mm | - | - | - |
| 1777619403 | 13.33° C | 58% | - | 0 mm | - | - | - |
| 1777618802 | 12.78° C | 61% | - | 0 mm | - | - | - |
| 1777618201 | 11.67° C | 61% | - | 0 mm | - | - | - |
| 1777617601 | 10.56° C | 63% | - | 0 mm | - | - | - |
| 1777617001 | 10.56° C | 65% | - | 0 mm | - | - | - |
| 1777616401 | 9.44° C | 66% | - | 0 mm | - | - | - |
| 1777615801 | 9.44° C | 69% | - | 0 mm | - | - | - |
* Rain latest hour (hover to see other rain measurements)
** Current wind speed in m/s (hover to see current wind gust speed)